Theta_e
327 330 331 333 333 331 332 332 332 334 335 335 335 336 336 335 335 332 331 335 331 330 332 330 328 328 327 326 325 325 327 327 329 330 331 332 331 328 328 329 329 330 328 322 321 323 324 324 322 321 321 322 323 324 325 327 328 329 330 331 331 331 332 333 333 332 332 332 331 331 331 331 332 332 332 332 332 331 331 331 332 332 331 332 331 331
327 331 331 330 331 330 330 331 332 334 334 335 335 335 335 334 335 334 334 338 332 329 335 333 330 330 327 326 325 324 327 327 328 331 330 330 331 329 329 331 331 330 328 325 324 323 323 325 324 323 321 321 323 323 324 326 327 328 330 331 331 330 332 332 332 333 332 332 331 331 331 331 331 331 331 332 332 331 331 330 331 331 331 331 331 331
329 331 329 328 331 330 329 330 330 332 332 334 335 335 336 334 335 335 336 340 334 330 336 336 333 332 330 328 327 326 328 329 329 329 330 330 330 329 330 330 330 330 331 330 327 324 322 324 325 324 323 322 322 323 324 325 325 327 329 330 330 330 331 331 332 332 332 332 331 331 331 330 331 331 331 331 331 331 331 330 330 330 330 331 331 331
331 329 327 328 331 330 330 329 330 331 331 333 334 334 335 334 335 337 338 341 339 333 333 333 333 332 331 330 330 328 328 328 330 330 330 330 331 331 330 329 329 329 329 330 329 326 322 323 324 324 323 323 323 322 323 324 324 326 327 328 329 330 331 330 331 331 331 331 331 331 331 330 330 330 330 331 331 331 330 330 330 330 330 330 330 330
329 328 327 327 329 329 330 329 329 330 331 331 332 333 334 333 333 336 338 338 339 337 331 330 334 334 332 333 331 328 327 327 327 329 329 329 330 330 330 329 329 328 328 328 329 328 323 321 322 323 324 324 323 323 323 323 323 324 325 326 327 328 329 330 331 331 331 331 331 331 331 331 330 330 330 330 330 330 330 330 330 330 330 330 330 330
326 326 327 326 326 327 328 329 328 329 330 330 330 330 331 333 333 334 334 334 336 339 334 331 337 337 333 333 331 328 329 328 326 327 328 329 328 327 327 328 328 328 328 327 327 327 322 320 321 322 323 323 323 324 324 325 325 324 324 325 326 327 328 330 330 331 331 331 331 331 330 330 330 330 329 329 329 330 330 330 330 330 329 329 329 329
325 326 328 327 325 326 327 328 328 328 328 330 331 329 329 331 333 333 333 333 335 337 333 331 336 338 333 332 332 330 330 328 326 327 327 327 325 325 325 325 325 325 325 326 326 326 323 320 319 320 322 324 324 324 324 324 324 324 324 324 325 326 327 328 329 330 331 331 331 330 330 330 330 330 330 330 329 329 329 329 329 329 329 329 329 329
326 327 328 327 326 327 326 326 326 326 328 330 330 330 329 330 331 332 333 335 335 333 332 330 332 335 334 332 331 329 329 328 326 326 326 325 325 325 324 323 323 323 323 324 326 327 324 320 318 320 323 323 323 323 323 324 324 325 325 324 324 325 326 327 328 329 330 331 331 331 330 330 330 330 330 330 329 329 329 329 329 329 329 329 329 329
324 325 327 326 327 328 326 326 327 327 329 328 327 329 330 331 331 331 332 334 332 332 334 332 329 332 335 334 329 326 328 328 327 326 326 325 324 323 322 321 322 321 321 322 324 325 322 318 318 320 322 322 322 323 323 324 324 324 324 324 324 324 325 325 326 327 328 329 330 330 330 330 330 330 330 330 330 329 329 329 329 328 328 328 328 328
324 324 324 326 327 328 327 329 330 330 330 325 324 327 329 330 331 331 332 331 330 332 335 332 329 332 336 333 328 326 327 328 327 326 324 324 324 322 321 321 320 319 322 324 326 324 318 317 320 320 321 322 322 323 322 322 322 322 322 322 322 322 323 323 324 325 326 327 329 329 330 330 330 330 330 330 329 329 329 329 329 329 328 328 328 328
324 322 323 325 326 326 328 330 330 330 328 324 325 328 328 329 330 330 329 328 330 334 334 331 328 331 335 333 327 326 330 330 326 326 325 323 324 324 323 321 319 322 327 328 331 327 317 316 320 320 322 322 321 321 320 320 320 320 321 321 321 321 321 322 323 323 324 326 328 328 329 330 329 330 329 329 329 329 329 328 328 328 328 328 328 328
323 323 324 326 324 325 327 327 326 326 324 325 328 330 330 328 328 329 327 327 332 335 333 332 328 329 333 332 327 326 329 328 326 326 326 326 327 327 326 322 322 327 331 334 338 334 323 322 321 320 322 321 319 318 317 317 318 318 318 318 318 319 319 320 321 322 323 324 325 327 328 329 329 329 329 329 329 329 328 328 328 328 328 327 328 328
324 323 323 324 322 323 327 327 325 322 322 326 329 330 332 331 330 331 329 328 333 333 331 330 328 329 331 329 328 327 326 326 326 325 326 328 327 326 325 324 326 330 335 341 343 336 333 332 323 319 321 318 315 315 315 315 315 315 315 315 315 316 316 317 318 319 320 320 321 323 324 326 327 328 329 329 328 328 328 328 328 328 327 327 327 327
325 323 322 323 322 322 326 327 325 324 324 325 328 329 331 332 332 333 331 331 332 332 330 327 328 331 331 330 329 326 325 325 324 324 326 326 325 325 324 324 331 334 335 342 344 339 340 333 321 319 319 316 314 314 314 315 315 315 314 314 314 314 314 314 315 315 316 316 317 318 319 321 323 325 327 328 328 328 328 328 328 328 327 327 327 327
326 326 323 323 323 323 324 325 325 325 324 323 325 328 329 330 331 332 331 332 332 331 328 325 328 332 334 334 329 325 324 324 322 324 325 325 324 324 322 324 332 336 332 334 340 341 337 325 318 320 317 315 315 314 314 314 315 315 315 314 314 314 314 314 314 314 314 314 314 315 316 317 318 321 323 325 326 327 328 328 328 328 328 328 327 327
325 327 324 322 323 322 323 324 323 324 325 323 324 327 327 327 330 330 328 329 331 331 328 327 331 335 333 330 327 326 325 323 324 325 325 325 324 322 322 323 329 334 333 334 337 338 331 321 318 319 315 315 315 314 314 314 315 316 315 315 314 314 314 314 314 314 313 314 314 313 314 314 315 316 318 320 322 325 327 327 327 327 328 328 327 328
324 325 324 322 323 321 321 322 322 324 326 323 323 325 324 325 328 328 326 326 328 331 331 330 333 334 330 327 328 330 328 325 324 323 321 322 321 321 323 323 326 333 335 334 334 336 332 322 318 317 315 315 315 315 315 315 315 316 315 316 315 314 314 314 314 314 313 313 313 313 313 313 313 313 314 315 317 319 323 325 327 327 327 327 327 327
325 327 324 322 324 322 320 321 322 322 324 323 324 323 323 325 327 326 327 327 327 328 329 330 330 329 328 329 328 328 329 326 323 321 319 320 324 327 327 325 327 330 331 332 332 333 330 321 317 317 315 314 314 314 315 315 315 315 315 316 316 315 315 314 314 314 314 313 313 313 313 313 313 313 313 313 313 314 317 320 323 325 326 327 327 327
325 327 324 322 324 322 320 322 323 322 322 324 323 321 323 327 326 325 326 327 327 327 327 330 329 326 327 327 323 324 325 324 323 322 319 320 327 332 330 330 332 330 327 328 328 329 330 322 317 317 315 314 314 313 313 314 314 315 316 315 315 315 315 315 314 314 314 314 313 313 313 313 313 313 313 313 312 312 313 314 317 320 323 325 326 326
323 324 325 323 322 322 321 322 324 324 322 323 322 320 323 325 325 325 324 323 326 326 325 328 329 327 326 321 319 321 320 321 324 324 323 324 328 330 328 330 335 332 327 326 324 326 329 322 315 315 314 313 313 313 313 313 313 314 316 316 315 315 315 315 314 314 314 314 313 313 313 313 313 313 313 313 313 312 312 313 314 315 318 321 323 325
321 321 324 324 322 323 324 322 323 324 322 323 323 323 323 323 324 325 323 325 327 324 324 326 326 329 327 319 317 319 316 319 321 321 325 328 328 328 327 327 332 332 328 325 320 321 324 317 312 314 313 312 313 312 313 313 312 313 314 315 315 314 315 315 314 314 314 313 313 313 313 313 313 313 313 313 313 312 311 312 312 313 315 317 320 322
320 320 322 324 323 324 324 321 320 322 322 322 322 323 322 322 324 325 324 327 328 324 326 326 322 326 328 320 317 318 316 317 318 318 322 327 328 329 327 324 327 329 328 325 322 325 324 315 311 313 313 312 313 312 312 312 312 312 312 314 314 313 314 315 314 314 314 313 313 313 313 313 313 313 313 313 312 312 311 311 310 311 313 315 316 319
320 321 321 324 325 323 322 322 322 322 321 321 321 321 321 321 322 323 323 325 325 325 328 327 323 326 329 323 318 318 317 317 319 320 323 326 329 328 324 320 321 324 325 326 328 331 323 312 312 314 312 312 314 313 313 312 312 312 312 313 314 313 314 314 314 313 313 313 313 313 313 313 313 313 312 312 311 311 311 310 309 309 309 311 313 315
320 320 319 322 324 321 320 321 322 321 321 323 323 321 321 321 321 323 325 326 324 323 325 325 324 329 333 328 321 319 319 319 320 322 324 325 324 324 325 323 321 322 323 324 327 329 319 311 313 314 312 314 314 314 314 313 312 312 312 312 313 314 314 313 313 313 313 313 313 313 313 312 313 312 311 311 311 310 310 310 310 309 308 308 309 311
320 320 319 322 324 322 322 323 322 320 321 322 322 321 320 320 320 323 327 326 323 322 324 323 322 327 331 327 321 320 321 320 318 320 323 323 322 324 327 326 326 326 325 324 326 328 323 319 316 312 312 314 314 313 314 313 312 313 312 312 313 313 314 313 313 313 313 313 313 313 313 312 311 311 310 310 309 309 310 309 309 309 308 308 308 308
320 321 321 321 323 324 325 325 324 322 321 321 321 321 320 320 320 321 323 323 322 323 323 322 321 323 325 322 319 320 322 320 318 319 320 321 322 325 327 328 329 326 325 325 328 328 328 327 321 312 310 313 312 312 314 313 312 312 312 312 312 312 313 312 312 313 312 312 312 311 311 310 309 308 308 308 308 307 308 308 308 308 308 308 307 307
320 322 321 320 322 322 323 324 324 322 322 322 321 321 321 320 320 320 321 321 322 323 322 320 320 322 322 320 319 321 323 322 320 320 320 320 321 324 324 325 325 323 325 327 326 327 328 330 326 314 308 310 312 312 312 311 311 311 310 311 312 311 311 310 311 311 310 310 309 308 307 307 306 306 306 306 306 306 306 306 306 307 307 307 307 307
321 320 320 320 320 320 321 324 323 321 322 322 321 321 321 320 320 320 321 321 320 322 322 321 321 321 319 318 319 319 321 321 318 320 321 321 321 322 321 320 320 322 325 325 325 326 323 323 327 318 308 308 310 309 309 309 309 310 310 311 311 310 309 309 308 308 308 307 306 306 306 305 305 305 305 305 305 305 305 305 305 306 306 306 306 306
320 319 319 320 320 319 322 325 324 321 320 320 320 321 320 320 320 320 320 320 320 321 320 319 321 321 318 318 317 317 318 317 316 318 321 321 320 320 318 319 320 321 323 324 324 325 321 321 327 319 307 305 307 307 309 310 309 310 310 309 309 308 308 307 307 307 306 306 305 305 305 304 305 304 305 305 305 304 304 304 304 305 305 305 305 305
318 319 319 319 320 319 320 323 323 321 320 320 320 320 320 320 320 319 319 319 320 320 319 319 320 319 318 318 317 317 317 316 316 319 320 320 320 319 319 320 321 322 323 323 322 324 324 322 321 312 303 303 306 306 308 309 308 308 307 307 307 307 306 306 306 305 305 305 305 304 304 304 304 304 304 304 304 304 303 304 304 304 304 304 304 304
317 319 319 318 319 319 318 318 320 321 321 320 320 320 320 320 320 320 320 319 319 320 319 319 320 319 317 316 317 320 320 317 317 320 320 320 320 320 320 321 322 321 322 324 324 325 323 317 315 311 304 303 305 306 306 306 305 305 305 305 306 306 305 305 305 305 304 303 303 303 303 303 304 304 305 304 304 303 303 303 304 304 304 304 304 304
314 318 318 317 317 318 316 315 316 318 319 319 320 320 320 320 320 320 320 319 319 320 319 319 319 317 316 315 316 320 321 319 320 322 322 322 322 321 321 321 321 322 326 327 323 320 317 314 317 316 306 302 304 305 304 303 303 303 304 304 305 305 304 304 304 304 303 303 302 302 302 303 303 304 304 304 303 303 303 303 303 303 303 303 303 303
314 316 317 316 317 319 317 315 314 315 316 318 320 319 319 319 319 319 320 319 318 318 319 319 318 316 317 318 316 316 318 318 320 322 322 323 322 321 320 320 321 323 325 322 315 313 315 313 311 308 303 302 304 303 302 302 301 301 302 303 303 303 302 303 302 302 302 302 301 301 301 301 302 303 303 303 303 302 303 303 303 303 302 302 303 303
315 316 316 316 318 319 317 314 314 315 317 319 319 318 318 319 319 319 320 319 318 318 318 318 317 316 319 321 318 316 317 318 319 319 319 319 320 320 318 316 317 317 317 315 313 315 314 307 302 302 302 302 302 301 301 300 299 300 301 301 301 301 300 300 300 299 299 299 299 299 300 300 301 301 301 302 302 302 302 302 302 302 301 301 302 302
315 316 315 316 318 318 315 314 318 319 318 319 319 318 317 317 318 318 318 318 318 318 318 318 317 316 319 320 320 320 318 317 317 318 317 316 316 317 315 312 312 313 315 316 316 314 308 301 300 301 301 300 300 300 299 299 298 299 299 299 299 298 297 297 296 296 295 296 296 296 297 298 299 300 300 301 301 301 302 301 301 301 300 300 301 301
315 315 315 315 316 316 315 316 320 319 315 315 316 315 315 317 318 318 318 318 317 317 317 317 316 316 318 320 321 321 316 312 313 314 316 316 313 312 312 312 314 317 317 313 310 307 302 299 300 300 299 299 298 298 298 298 297 297 297 297 297 296 296 295 295 294 293 293 294 294 294 295 296 297 298 299 300 301 301 301 300 299 299 299 300 300
314 315 315 315 314 314 316 317 317 316 314 314 316 315 314 316 317 317 318 318 317 316 316 316 316 316 317 317 318 316 311 309 311 313 314 316 316 313 313 314 314 314 309 304 301 301 300 299 299 298 298 298 297 297 297 297 296 296 296 296 296 295 295 295 294 293 293 293 292 293 293 293 293 294 295 296 297 298 299 299 300 299 298 298 299 299
311 313 314 316 314 312 315 316 317 317 315 315 316 314 313 315 316 316 318 318 316 315 315 315 316 316 315 315 315 313 310 311 313 313 312 313 313 311 310 309 304 301 301 299 299 299 299 298 298 297 296 297 297 296 297 296 295 296 295 295 295 295 294 294 293 293 293 292 292 292 292 292 292 292 293 293 294 295 296 297 297 298 297 296 297 298
309 310 312 314 314 312 314 316 316 316 315 315 316 313 313 317 317 316 318 318 316 314 313 314 316 316 315 315 314 312 311 314 314 312 310 308 307 306 307 305 301 297 298 299 298 298 298 297 296 296 295 296 296 296 296 296 296 295 295 295 294 294 294 293 293 292 292 292 292 292 292 292 292 291 292 292 292 292 293 294 294 295 295 296 296 297
310 310 311 313 313 313 313 314 314 313 313 315 316 312 312 314 314 315 318 317 315 314 313 313 314 315 315 314 312 311 312 314 313 311 308 306 304 302 301 303 301 298 297 298 298 297 297 296 295 295 295 295 295 295 295 295 295 295 295 295 294 294 294 293 293 292 292 291 291 291 291 291 291 291 291 291 291 292 292 292 293 293 294 294 295 295
311 311 311 312 313 312 312 314 313 312 313 315 314 310 310 311 312 314 316 315 314 315 313 311 312 313 313 311 310 309 309 311 312 309 305 303 304 302 299 298 298 297 296 297 297 296 296 295 294 294 294 294 294 294 294 294 294 294 294 294 294 294 293 293 292 292 291 291 291 291 291 291 290 290 290 290 290 291 291 291 292 292 292 293 294 294
313 312 311 312 312 311 311 312 312 312 314 314 310 306 308 312 312 312 313 312 312 314 313 310 310 311 312 311 309 309 311 311 309 305 302 303 304 304 301 297 296 296 296 295 296 296 295 295 294 294 293 293 293 293 293 293 294 293 293 294 294 294 293 293 292 291 290 290 290 290 290 290 290 289 289 289 289 289 290 290 291 291 291 292 292 293
314 313 312 312 311 311 311 311 312 314 311 308 306 306 308 313 313 313 315 312 309 311 311 310 310 310 311 310 308 310 312 310 305 303 304 305 304 304 301 297 296 296 295 294 295 295 294 294 294 293 293 292 292 292 293 293 293 293 293 293 293 293 293 292 291 290 290 289 289 289 289 289 289 289 288 288 289 289 289 289 289 290 290 291 291 292
313 313 313 313 311 312 312 311 311 311 307 304 307 308 308 311 313 314 316 314 310 310 310 309 311 310 311 314 312 309 308 306 304 305 306 305 304 304 301 298 295 294 294 293 294 294 293 293 293 292 292 292 292 292 292 292 292 292 292 293 293 292 292 290 289 289 289 288 288 289 289 289 288 288 288 288 288 288 288 288 288 289 289 290 290 290
313 311 313 315 312 311 311 309 307 309 306 305 308 309 308 311 312 311 314 314 313 311 309 309 312 310 307 311 311 307 305 305 303 304 305 304 304 303 300 296 294 294 294 293 293 293 292 292 291 291 291 291 291 292 292 292 292 292 292 292 291 290 289 288 288 288 288 288 288 288 288 288 287 287 287 287 286 287 287 287 288 288 289 289 289 290
309 308 311 314 312 309 309 307 306 309 307 305 309 310 311 314 311 308 313 315 312 310 308 309 313 310 305 307 309 305 303 303 303 303 304 304 303 300 297 294 292 292 293 293 292 292 292 291 291 290 290 291 291 291 291 291 291 290 290 290 289 287 287 287 287 287 287 287 288 288 288 287 286 286 286 285 285 285 286 286 287 288 288 288 289 289
305 306 308 310 309 310 311 308 307 309 308 308 311 309 308 311 308 306 312 314 310 309 307 306 308 307 303 305 308 306 302 302 303 302 301 300 299 298 296 295 292 291 292 292 291 291 291 290 290 289 289 290 290 289 290 290 289 289 288 287 286 285 286 286 287 287 287 287 287 287 286 286 285 285 285 284 284 284 285 285 286 287 287 288 288 289
305 305 307 309 309 309 309 307 307 308 306 307 310 310 308 311 310 304 305 307 304 303 302 300 301 303 303 303 304 304 302 302 301 299 297 295 294 294 294 292 289 289 290 290 290 290 289 289 289 288 288 288 288 287 287 287 286 286 285 285 285 285 285 286 286 286 286 286 286 285 284 284 284 283 283 283 283 283 284 284 285 285 286 287 288 288
305 306 308 308 307 306 304 304 305 306 306 307 309 308 306 308 308 304 301 301 301 301 300 298 297 299 301 302 301 301 299 298 296 296 294 292 291 290 289 288 287 288 288 288 287 287 288 287 287 287 286 285 285 284 284 283 283 283 283 283 284 285 285 285 285 285 284 284 284 283 283 282 282 282 282 282 282 282 282 283 284 285 285 286 287 288
304 306 307 307 307 308 308 306 305 307 309 308 306 304 300 299 301 302 299 298 298 297 296 294 293 292 292 293 294 296 295 292 291 292 290 288 287 286 285 284 285 285 285 285 285 285 286 286 285 284 283 283 282 282 281 280 281 281 282 283 284 284 284 283 283 282 282 281 281 281 281 280 280 281 281 281 281 281 282 282 282 283 284 285 286 287
306 307 307 307 309 309 309 307 305 309 313 306 297 296 295 294 295 295 294 293 293 292 291 292 292 291 289 286 286 289 290 289 288 288 287 285 283 282 281 281 282 282 282 283 283 283 282 282 281 280 280 280 279 279 279 279 280 281 282 282 283 283 282 281 280 279 279 279 279 279 279 279 279 280 280 281 281 281 281 281 281 282 283 284 286 286
Wind_Speed
4 4 5 8 10 11 13 12 12 6 1 2 4 5 5 5 5 3 3 5 3 4 7 8 11 11 12 14 13 10 9 7 7 8 7 7 7 7 8 7 8 9 9 14 20 23 25 27 29 31 32 33 33 34 34 33 33 35 35 35 36 37 37 38 37 37 36 35 35 33 33 36 38 38 39 40 41 42 43 42 40 39 39 39 39 38
4 6 11 12 10 10 12 11 10 8 5 0 2 3 4 4 5 4 4 5 1 3 5 5 8 10 10 12 11 7 6 8 9 9 9 9 9 7 7 9 9 8 8 10 14 19 22 23 24 26 27 29 31 33 35 34 35 36 35 36 37 37 36 38 38 38 38 38 37 35 36 38 39 38 38 40 41 42 42 41 39 39 38 38 39 39
4 10 16 10 6 7 8 9 9 8 7 3 3 3 3 3 3 5 4 4 2 2 4 4 5 7 8 10 11 7 7 7 9 10 9 10 9 8 8 9 10 9 9 10 11 16 20 22 23 23 24 27 30 33 34 34 35 35 35 37 37 37 37 38 39 38 38 39 38 37 37 37 36 36 37 38 39 38 39 39 38 38 38 38 39 39
6 11 11 7 7 10 9 8 10 7 6 6 5 4 4 3 2 4 4 3 3 3 3 4 5 6 6 7 9 8 8 7 8 9 9 8 8 10 10 8 9 10 11 11 11 13 18 22 23 23 24 27 28 30 31 31 33 34 36 37 37 38 38 38 38 38 39 38 37 36 35 33 31 31 32 33 34 35 36 36 37 38 39 39 39 39
10 5 6 8 8 11 10 9 10 7 5 7 8 8 7 5 5 5 3 3 5 4 2 2 6 7 6 7 9 7 6 6 7 8 8 8 8 9 9 8 9 10 11 12 12 12 13 18 22 25 27 26 24 26 28 29 31 33 35 37 37 38 38 38 38 38 37 35 33 32 31 29 27 26 27 28 30 33 35 36 38 39 40 39 39 39
12 4 8 11 11 10 10 9 11 9 6 6 9 12 11 9 9 7 2 2 4 6 3 1 5 7 4 7 10 7 7 7 5 7 9 9 9 9 8 9 10 10 11 11 12 11 11 15 21 23 25 25 24 26 29 29 29 31 33 34 36 37 36 36 35 35 34 33 33 31 29 28 26 26 27 29 31 33 35 38 39 39 39 39 39 39
6 6 8 11 12 12 12 10 13 12 7 6 6 11 13 10 10 9 5 3 4 6 4 3 5 7 3 4 7 6 8 9 5 6 9 9 9 8 8 10 10 10 10 9 10 10 11 14 16 18 24 26 26 27 26 24 24 26 28 30 31 33 33 33 32 31 31 32 33 32 32 32 30 29 31 32 32 34 35 37 37 37 38 38 39 39
8 11 10 12 12 11 11 11 12 12 9 5 1 7 14 13 12 10 8 6 5 3 4 2 4 6 6 5 7 6 5 8 7 7 8 8 8 10 10 10 10 11 11 9 10 11 11 14 15 18 25 26 24 22 19 17 17 18 21 23 25 27 28 29 29 29 29 31 32 33 34 34 33 33 33 31 30 32 33 33 35 36 36 37 38 39
8 13 13 14 11 8 11 10 10 12 8 4 1 5 9 9 10 9 7 6 3 1 6 5 4 5 8 5 6 6 6 8 8 8 9 9 10 11 10 10 10 12 11 8 9 10 9 13 17 20 23 22 17 13 11 9 9 9 11 14 17 19 21 23 24 25 27 29 31 32 32 33 34 34 34 31 29 29 30 32 34 35 35 36 37 39
2 10 13 13 10 9 10 7 9 14 7 2 5 8 5 3 3 4 5 6 3 3 10 10 8 6 7 3 5 4 5 8 8 7 8 8 9 9 9 11 11 9 8 7 8 9 10 14 16 15 13 11 6 4 5 6 6 7 8 9 11 12 13 15 18 21 24 26 28 30 31 32 33 32 32 31 30 30 29 30 33 34 35 36 36 38
1 4 8 8 9 8 7 4 6 13 11 7 6 8 6 4 4 2 1 3 3 5 13 15 12 9 7 3 4 4 5 8 7 6 7 7 8 8 8 9 8 6 6 7 7 7 9 10 8 4 1 3 5 5 5 5 5 6 7 8 9 10 10 11 13 15 18 21 24 28 30 31 32 32 30 28 29 30 29 31 33 33 34 35 36 37
2 5 7 5 5 7 6 3 2 3 9 8 5 5 4 2 2 2 2 1 5 6 10 12 12 10 9 5 3 6 7 8 9 8 8 9 8 8 8 8 6 5 7 7 6 4 2 1 3 5 8 8 7 6 4 4 4 4 5 7 8 8 8 8 9 11 13 16 19 23 27 29 32 32 30 29 30 31 30 32 33 32 32 33 34 36
5 6 7 3 2 7 8 4 3 3 4 5 6 7 6 2 2 2 2 3 5 5 5 5 9 8 9 8 5 7 7 7 8 9 9 10 9 9 9 8 6 6 7 6 5 4 5 5 4 7 10 9 8 7 6 5 5 4 4 5 6 6 5 6 7 9 11 13 15 18 21 25 28 30 31 31 31 32 31 32 32 31 31 31 33 34
5 5 7 5 2 7 11 9 5 4 6 7 8 9 8 6 4 5 5 3 3 5 3 2 5 4 5 6 9 11 11 12 11 10 10 9 9 10 8 6 6 5 7 6 6 5 5 4 3 6 10 9 8 7 7 6 6 5 5 4 5 6 5 4 5 7 10 12 14 15 17 20 23 26 29 31 32 33 32 31 32 32 32 32 33 34
9 6 9 12 6 9 15 13 10 9 9 8 4 4 6 6 5 6 6 4 3 2 1 2 3 5 4 4 8 13 13 13 10 7 8 7 8 9 6 5 6 6 6 5 5 5 5 6 6 8 10 8 7 6 6 6 6 6 6 5 6 7 6 6 6 5 7 8 10 12 15 18 20 22 25 28 31 32 33 32 32 33 34 34 35 36
12 5 9 15 8 13 17 9 7 9 7 5 2 2 4 3 3 2 2 3 3 2 2 3 2 4 5 5 6 6 6 7 7 6 7 8 9 8 6 7 8 6 6 4 4 6 6 8 10 10 10 8 6 5 5 5 5 6 6 5 5 5 6 7 7 8 8 9 9 10 12 14 17 20 23 26 28 31 32 33 33 34 35 35 35 36
10 5 11 15 7 12 17 9 8 9 7 4 4 4 2 2 4 2 1 1 3 1 2 4 3 4 3 6 7 6 6 6 7 7 8 9 9 8 7 8 8 7 6 5 6 8 7 9 12 11 10 8 6 5 3 3 3 3 4 4 4 4 4 5 6 7 8 10 11 12 13 14 15 17 20 23 26 28 30 32 34 35 36 36 36 36
6 3 8 15 12 11 11 10 8 6 5 6 5 4 2 2 2 2 1 1 3 3 3 5 8 5 3 4 4 5 9 10 10 9 9 10 9 7 7 8 7 8 10 11 10 10 9 11 14 14 11 8 6 5 3 2 1 0 1 2 2 3 3 4 5 6 7 9 11 13 14 15 16 17 19 20 23 25 26 29 32 34 35 36 36 35
5 1 3 12 14 7 6 9 8 5 1 3 6 7 5 2 4 4 4 3 4 5 3 4 8 6 6 7 4 7 13 14 12 9 9 11 9 7 7 6 6 6 7 9 9 9 8 10 14 15 12 7 5 4 3 2 1 1 2 2 2 3 3 4 4 5 6 8 10 13 14 16 18 20 21 21 21 22 24 27 29 31 33 35 35 35
4 3 3 6 9 8 6 7 8 5 1 2 5 7 4 4 5 6 6 4 4 6 4 4 5 4 6 9 10 13 14 11 9 8 8 10 8 7 6 6 6 6 6 6 7 9 8 10 15 17 12 7 5 3 2 2 3 3 2 3 4 5 5 5 6 6 7 8 10 12 14 16 19 22 24 24 22 22 23 25 27 29 31 32 33 34
3 4 4 4 5 8 7 8 13 14 8 6 8 8 6 5 2 1 4 4 3 4 5 4 5 5 5 8 12 15 13 10 9 10 9 7 6 7 7 7 7 6 6 6 5 6 6 8 14 15 10 6 5 6 5 6 7 8 5 3 4 6 7 7 7 8 9 10 10 13 15 17 21 24 25 25 25 24 24 25 26 27 28 29 31 32
3 5 6 4 5 8 8 9 13 14 12 10 10 10 10 8 4 2 4 2 3 4 4 4 6 6 5 6 9 12 12 9 10 11 9 7 6 8 8 8 8 8 7 6 6 5 4 6 11 11 7 3 5 6 6 7 9 11 11 7 5 8 8 7 8 11 12 12 13 14 16 19 23 25 26 26 26 26 26 25 26 26 27 28 29 30
2 2 6 4 4 6 4 3 5 9 14 12 8 7 8 6 6 7 8 4 3 4 2 2 5 6 5 5 8 10 9 8 8 9 8 7 7 7 5 2 6 7 7 7 7 6 6 8 11 9 5 1 7 8 7 8 8 10 13 12 10 11 9 7 10 13 13 14 16 17 18 21 23 25 25 26 26 26 26 26 26 25 26 26 27 28
3 1 6 3 2 1 3 2 3 4 8 9 5 5 7 9 10 8 6 5 5 6 5 4 5 6 5 3 5 6 5 5 6 7 7 6 5 6 0 5 6 7 6 5 5 4 4 6 7 6 3 6 11 11 7 7 9 9 11 13 14 13 9 9 12 15 15 17 18 19 20 22 24 24 24 24 25 26 26 26 26 26 26 25 25 26
4 4 6 4 4 2 0 2 3 2 5 8 10 11 13 15 13 5 2 4 6 9 11 7 5 6 5 1 1 2 5 6 6 5 6 6 4 3 4 7 6 7 6 4 4 3 4 5 5 3 3 7 10 10 7 8 9 9 10 12 14 11 9 11 14 15 16 18 19 21 22 23 24 24 24 24 25 26 26 26 27 27 26 26 25 25
7 6 6 7 8 7 8 10 9 7 6 6 9 14 15 17 17 10 5 7 7 8 11 8 6 6 5 3 3 4 5 7 5 4 4 4 5 5 6 6 6 6 5 5 5 4 4 4 4 3 5 8 10 9 8 9 10 11 12 12 11 9 9 12 13 14 17 18 19 21 22 23 23 23 24 25 25 26 26 26 26 26 26 25 25 25
4 5 9 12 12 12 11 8 5 7 7 7 10 15 17 17 18 13 7 8 9 7 9 9 6 6 9 8 7 6 7 8 7 6 4 3 5 5 6 5 4 3 4 5 4 4 4 4 5 6 9 11 10 9 9 10 11 12 13 11 8 8 10 12 14 15 17 17 19 20 21 21 21 22 23 24 25 25 26 25 25 25 25 24 24 25
3 7 14 15 16 17 11 5 7 11 13 16 17 19 18 17 17 15 12 13 11 8 10 10 8 10 13 14 12 9 10 10 7 7 6 6 6 5 5 3 1 4 5 5 5 5 4 6 6 7 10 10 9 9 10 11 11 10 9 8 8 10 12 14 15 16 17 17 17 18 18 19 19 20 21 22 23 25 25 26 26 25 25 24 24 24
5 9 14 14 17 18 10 6 11 14 15 17 17 18 18 18 19 19 18 17 13 10 12 11 12 14 15 16 16 13 13 10 7 7 6 5 5 4 3 2 3 4 5 6 6 5 5 6 6 6 8 9 9 10 10 10 9 8 7 7 9 11 13 14 16 17 17 17 16 16 17 18 19 20 21 21 22 23 24 25 26 26 26 26 25 24
4 8 12 12 15 17 10 5 9 13 14 16 18 18 17 18 20 20 19 17 14 12 12 11 15 16 16 19 16 11 10 7 6 7 5 5 5 5 5 5 6 6 7 7 6 6 6 5 4 4 7 9 9 9 8 8 8 7 8 9 10 12 13 14 14 14 14 15 15 16 17 18 19 20 20 21 21 21 22 23 24 25 26 26 26 25
5 9 13 11 10 13 10 6 8 11 14 17 19 18 16 16 17 18 18 16 14 14 16 15 13 12 16 17 9 5 6 5 8 8 6 6 7 7 6 7 7 7 7 7 7 7 5 2 3 4 4 5 6 7 7 7 6 6 7 8 10 11 12 12 12 13 13 13 14 15 17 18 19 20 20 21 22 21 22 22 23 24 24 24 25 24
6 5 8 9 8 11 12 11 9 7 8 12 16 17 18 18 18 19 19 18 17 18 18 14 9 11 15 12 6 4 6 8 8 8 7 6 7 7 7 8 7 7 8 7 5 4 2 2 2 2 3 5 6 6 5 5 5 6 6 7 7 8 9 10 10 11 12 13 14 15 17 18 19 20 20 21 22 23 23 23 23 22 23 23 23 23
6 5 4 8 9 11 11 12 9 4 2 7 11 16 19 20 20 19 18 19 20 18 15 12 13 14 9 4 8 11 8 9 7 7 6 6 7 7 8 9 8 8 7 5 2 1 1 3 4 5 5 6 6 5 4 4 5 6 6 6 6 6 7 7 8 9 11 12 14 16 17 19 19 20 20 21 22 23 23 24 24 23 23 23 22 22
9 10 6 7 8 8 8 9 7 5 6 7 8 14 20 21 21 20 19 20 20 15 11 10 13 13 6 5 11 13 6 8 7 7 7 7 7 8 9 9 8 7 5 2 3 4 4 4 5 5 5 5 5 4 3 3 5 5 5 5 6 6 7 7 8 9 12 13 14 16 17 19 20 20 21 21 22 23 23 24 24 24 23 23 23 23
13 12 7 5 6 5 6 9 7 8 6 3 3 12 20 20 21 22 20 19 19 16 14 14 17 14 7 6 9 7 4 7 6 7 8 8 8 8 8 7 6 6 4 4 5 5 5 6 7 6 6 6 4 3 2 3 4 4 4 5 6 7 8 9 10 12 14 15 16 17 18 19 20 20 21 22 22 23 23 24 24 24 24 24 24 24
11 11 6 4 3 3 5 8 8 4 1 3 4 6 13 14 14 15 15 18 21 21 20 21 21 14 7 5 7 5 3 4 2 5 8 8 7 7 6 7 7 7 6 7 7 7 7 8 9 8 7 6 4 4 4 4 5 5 5 5 7 8 10 11 13 15 17 18 19 19 19 19 19 20 21 22 22 23 24 24 25 25 25 25 25 25
5 6 4 5 4 3 5 8 4 3 3 3 4 4 10 13 15 15 14 15 16 16 16 17 18 14 8 6 7 4 2 4 2 6 6 6 6 4 4 6 8 7 7 8 9 9 9 8 8 8 7 6 5 5 5 6 7 6 6 7 9 10 11 13 15 17 19 20 21 21 20 20 19 20 20 21 22 23 24 24 26 25 25 27 28 28
3 3 3 4 3 1 4 6 3 1 3 7 8 5 6 8 9 10 9 9 8 11 14 15 17 15 9 7 6 2 4 1 7 6 5 5 4 5 6 6 7 9 10 11 10 9 8 8 9 8 6 6 5 5 5 5 6 7 8 9 10 12 13 15 17 19 21 22 23 23 21 20 20 20 20 21 21 21 22 23 25 25 25 26 28 29
5 2 1 2 1 1 2 4 4 5 6 7 8 6 6 9 10 9 4 9 9 11 13 14 14 12 10 10 8 5 5 6 10 6 6 7 6 7 8 7 7 9 12 12 11 10 9 9 9 7 6 6 5 5 4 4 6 8 9 10 11 13 15 17 19 20 22 24 24 24 23 22 21 20 21 21 21 21 22 23 24 25 25 25 26 28
7 4 3 3 2 2 3 1 1 3 5 4 5 6 8 11 14 11 6 9 6 10 12 13 14 13 13 13 8 7 8 10 9 6 7 8 6 6 7 8 8 9 11 11 10 10 11 10 8 6 5 6 6 5 5 5 7 8 9 10 11 12 14 17 19 21 23 25 26 26 25 24 23 23 22 22 22 22 22 23 24 25 26 26 26 27
4 3 3 3 3 4 6 3 2 3 5 5 6 7 10 13 11 7 9 5 8 12 12 14 16 16 14 11 8 7 9 7 2 6 8 8 7 5 6 9 11 11 12 11 11 11 11 10 8 7 7 7 7 7 6 6 7 8 9 10 12 11 13 16 19 21 23 25 26 26 26 25 25 25 25 24 24 24 23 23 23 24 25 27 27 28
4 3 2 3 3 3 3 2 1 4 5 6 4 4 8 10 6 8 6 4 8 12 10 10 14 13 10 9 8 7 5 2 5 8 8 7 8 7 6 7 9 9 10 10 10 10 9 9 8 9 10 10 10 10 9 8 9 9 9 11 12 12 13 17 20 23 25 26 26 25 25 25 26 27 27 27 25 26 26 25 23 23 24 25 26 27
5 4 3 4 4 2 2 3 2 4 4 8 10 3 4 6 5 5 3 3 3 5 5 7 8 7 7 8 6 5 6 6 6 8 7 6 7 7 6 6 7 7 7 9 9 8 8 9 10 10 11 12 13 12 11 11 12 11 11 12 13 13 15 18 22 24 25 26 25 25 24 24 26 27 28 28 28 27 28 27 25 23 22 22 24 26
3 4 4 4 3 4 4 5 4 2 3 7 10 6 8 7 4 5 6 4 1 2 4 5 5 5 7 8 7 6 7 7 6 7 6 5 5 5 5 4 5 6 7 8 8 8 9 10 10 10 11 13 14 13 13 13 14 13 13 15 15 16 18 21 23 24 24 24 23 23 23 24 25 26 27 27 28 29 29 29 28 26 24 22 22 24
4 4 4 3 3 3 4 3 3 2 3 3 2 3 6 4 2 2 7 6 2 3 4 5 5 5 5 8 9 7 6 6 6 6 5 5 4 4 4 4 4 5 7 8 8 8 9 9 9 9 11 12 13 13 12 12 13 14 14 15 17 20 22 24 25 24 24 23 23 23 23 24 25 25 25 25 26 27 28 29 29 28 26 24 23 23
3 1 3 3 2 3 3 2 1 1 3 3 2 3 1 3 1 2 6 6 4 4 4 4 6 7 6 8 8 6 5 6 6 5 5 5 4 3 4 5 6 7 7 8 9 9 9 9 9 10 11 12 13 12 11 10 10 12 14 17 20 23 23 23 24 24 24 24 23 23 24 25 25 25 25 26 26 26 26 26 26 27 26 24 23 22
3 2 3 2 3 3 3 3 3 2 4 5 1 3 4 4 2 1 4 5 4 4 4 4 6 7 6 6 8 7 6 7 7 6 4 5 4 3 4 5 7 8 8 8 8 8 10 11 10 9 10 10 11 11 9 9 10 12 16 20 22 22 21 21 22 23 23 23 23 23 23 24 26 27 27 28 28 27 27 25 25 25 25 23 22 23
2 3 3 2 4 4 3 4 3 1 1 2 2 2 3 3 3 3 4 5 6 6 6 5 6 6 5 5 7 9 7 6 7 7 5 4 4 4 3 5 7 8 8 7 7 8 11 12 11 11 10 9 10 11 11 12 14 17 19 20 20 19 19 20 20 21 21 22 22 23 23 23 24 26 27 28 27 26 26 25 24 24 25 23 22 23
4 5 3 2 3 1 3 2 1 4 4 2 0 2 2 2 4 5 6 6 7 8 8 8 7 6 6 6 6 9 9 6 5 7 6 5 5 5 5 6 7 8 7 7 7 8 9 10 11 12 11 11 12 14 15 16 18 19 19 18 17 17 18 18 19 19 20 22 23 24 25 25 24 25 25 26 25 24 24 23 22 23 27 26 23 22
4 4 2 3 4 2 3 4 5 3 0 3 1 3 3 2 6 7 7 8 7 7 8 10 9 9 9 8 6 8 9 6 5 6 7 6 5 5 6 6 6 5 6 6 6 7 7 8 10 12 13 15 16 18 19 20 20 19 17 16 16 16 16 19 21 22 22 22 23 24 25 26 25 24 23 22 22 22 24 25 23 22 25 26 25 22
4 5 5 5 4 4 6 8 7 4 2 1 2 5 3 4 8 9 8 7 7 6 6 9 9 9 9 9 9 9 8 6 5 7 7 6 6 6 7 6 6 6 7 7 8 9 9 11 12 14 16 18 19 20 20 20 18 17 16 14 14 15 18 21 24 24 23 23 24 24 25 25 24 22 20 19 20 21 23 27 28 26 24 23 23 23
Wind_Direction
165 168 189 204 205 193 189 197 209 215 138 148 173 202 208 215 253 254 257 275 189 209 249 231 239 242 241 251 244 243 256 259 267 272 265 258 253 246 244 249 247 241 243 247 246 244 244 245 246 245 243 242 243 244 244 243 242 241 240 238 238 241 238 233 232 232 231 230 231 232 232 235 238 237 237 238 239 240 242 243 242 241 242 242 243 244
165 195 214 211 201 185 184 190 198 219 235 201 182 231 244 229 253 251 249 288 214 193 258 245 249 255 247 256 259 246 245 253 251 253 256 249 249 250 244 249 249 251 260 260 258 253 249 248 249 247 243 240 240 242 243 242 243 243 241 239 240 242 238 235 233 231 231 231 231 231 232 236 237 237 237 237 239 240 242 242 242 242 243 243 243 243
184 220 220 197 158 156 169 178 180 203 215 219 229 239 256 227 256 268 267 315 325 209 266 285 271 262 251 253 261 247 221 235 237 233 242 242 244 249 243 246 249 254 263 260 261 260 257 255 255 253 247 242 241 242 243 243 244 242 241 240 241 241 239 239 237 232 233 235 235 235 237 238 238 239 240 240 241 242 242 242 242 243 243 243 243 243
192 227 214 155 137 157 166 177 176 188 204 209 215 223 243 193 148 257 274 325 307 245 253 304 305 271 256 258 261 247 219 224 237 233 240 241 237 243 244 246 244 244 250 254 256 258 259 259 257 255 251 247 244 243 243 242 242 241 242 243 242 241 241 241 240 237 237 238 238 238 239 240 241 243 244 244 244 243 243 243 243 243 243 243 242 242
212 219 143 152 186 176 168 176 175 184 204 207 207 211 224 209 192 224 270 320 311 289 254 315 305 270 238 245 257 254 224 216 231 234 246 252 242 246 258 260 246 239 242 247 249 251 253 255 255 253 253 253 249 246 247 246 244 243 244 246 245 244 243 242 241 241 239 236 236 236 236 239 242 245 243 242 243 242 243 243 243 243 243 242 241 241
225 196 133 176 208 196 186 192 189 191 202 216 214 213 213 205 208 213 196 349 310 288 263 146 284 274 225 229 245 247 234 228 226 225 236 249 249 245 255 257 248 243 242 242 247 252 253 254 256 258 258 258 256 254 255 255 252 249 248 248 247 246 244 243 242 241 238 234 233 232 231 232 234 238 238 236 239 240 242 243 244 243 243 242 242 241
218 174 153 181 198 200 205 214 206 196 206 232 216 208 210 204 207 203 167 169 236 263 267 166 232 271 289 244 245 238 241 247 242 236 238 243 253 250 246 248 248 248 247 246 251 255 254 254 257 260 262 260 259 261 263 263 262 258 254 250 248 248 247 247 244 242 239 235 233 231 231 233 233 236 240 240 241 243 244 246 246 245 244 243 243 242
183 173 174 182 187 194 203 218 211 194 203 240 227 189 201 203 207 195 168 194 220 268 296 224 195 263 273 250 238 216 235 265 259 252 251 245 249 250 246 248 250 250 247 242 244 247 248 248 247 251 257 260 264 273 277 275 273 271 266 259 252 251 252 252 249 245 242 239 237 234 234 236 237 240 245 247 247 247 248 248 249 248 247 246 245 245
175 179 183 181 183 193 205 213 196 179 196 251 142 160 187 193 201 189 172 208 217 126 265 237 156 247 266 248 234 213 217 255 252 241 243 242 243 246 252 254 251 252 251 244 247 253 253 248 247 251 260 269 278 288 295 293 292 292 284 275 264 261 261 259 255 250 247 246 243 240 237 238 241 244 247 250 251 252 251 250 251 250 250 249 247 246
183 190 181 175 185 201 203 194 171 174 186 214 134 103 89 106 126 169 183 199 185 192 237 221 170 218 265 231 205 209 212 235 246 245 238 239 246 250 257 258 257 265 270 261 252 254 258 258 260 263 268 280 301 334 342 336 329 322 311 301 292 287 284 275 265 256 252 250 247 244 241 242 245 247 248 250 251 252 251 251 252 251 250 250 248 248
315 175 164 175 194 191 175 151 181 180 163 145 125 91 74 58 56 70 156 161 176 222 237 221 185 199 256 240 188 202 198 204 217 242 249 250 258 259 257 259 268 276 264 249 241 243 256 261 265 274 322 41 44 29 2 347 333 322 317 310 305 305 305 298 283 267 260 256 251 248 247 247 249 251 250 249 249 250 249 250 251 251 251 250 250 250
153 149 168 199 190 148 127 102 354 159 147 133 117 115 115 67 36 46 35 157 203 233 241 220 181 185 233 241 205 230 223 204 200 212 233 242 252 259 261 269 274 258 244 236 228 225 222 141 82 71 68 63 51 38 27 13 352 332 322 310 303 305 308 307 296 282 275 268 260 256 254 252 254 254 252 251 251 250 249 250 252 252 251 251 251 250
181 179 184 194 165 146 137 128 54 75 152 134 125 149 155 165 180 176 202 207 219 245 265 213 164 177 236 241 227 246 250 234 215 205 214 225 238 254 264 277 279 257 249 223 187 159 120 99 63 62 70 68 60 53 48 42 31 18 359 331 324 332 328 309 296 288 283 278 274 270 265 261 260 258 256 255 255 255 253 253 253 253 253 252 252 251
178 193 184 166 181 175 160 161 169 164 180 172 158 171 178 177 182 195 202 209 235 243 266 203 168 190 265 250 222 228 234 227 215 206 212 220 237 249 254 268 269 260 256 220 168 146 127 113 84 87 88 80 74 67 58 55 50 43 41 28 15 17 9 342 314 294 286 282 281 280 276 274 270 266 263 261 260 260 258 256 256 256 256 255 255 255
186 200 183 179 182 182 182 184 179 161 171 185 168 167 190 190 192 199 198 196 205 212 161 167 183 193 213 243 226 222 229 230 221 216 226 233 243 248 247 244 241 245 252 230 152 136 141 137 125 111 102 96 96 87 70 63 61 60 60 56 47 44 40 29 15 350 327 312 299 290 284 282 279 276 273 269 267 265 263 261 260 259 259 258 258 259
202 219 175 183 174 168 186 189 145 138 160 193 149 137 206 205 169 180 192 171 145 93 122 185 233 218 216 285 277 244 258 257 251 255 248 250 253 248 239 221 213 212 233 230 144 144 157 145 133 122 113 110 110 106 92 76 69 69 68 66 62 56 50 42 32 21 8 355 342 325 309 298 291 286 282 278 274 271 268 266 264 262 262 261 261 262
201 212 175 181 177 179 188 176 159 171 166 173 188 180 178 111 122 136 278 105 102 121 205 187 232 272 276 291 278 266 288 281 260 255 244 246 250 239 226 215 202 188 191 192 166 162 162 148 144 142 133 122 116 118 120 100 80 75 71 66 65 56 46 38 25 19 13 5 359 353 342 329 316 303 294 288 284 280 276 272 268 266 265 263 263 262
179 202 184 180 187 202 186 156 180 207 147 145 188 173 110 48 88 121 183 147 133 208 228 193 214 228 211 258 280 253 257 258 249 245 245 250 245 231 232 230 219 195 176 174 171 162 153 149 156 161 155 145 134 127 124 115 100 57 61 43 35 36 28 20 10 7 5 359 358 358 354 348 339 327 315 304 296 291 284 278 273 270 268 267 265 264
171 186 229 191 188 184 136 143 190 234 155 152 169 157 143 204 221 187 178 189 182 204 234 213 222 217 195 227 249 216 228 239 243 247 255 253 240 229 241 248 249 226 179 167 163 153 149 154 164 169 166 159 147 133 119 98 37 317 287 297 329 342 343 348 345 344 349 348 348 351 352 350 346 339 329 318 308 299 291 286 282 277 273 272 270 268
185 191 226 195 179 157 145 174 195 200 165 97 146 162 173 201 212 194 186 198 191 203 226 212 217 225 213 221 224 225 227 222 228 247 246 239 236 234 235 227 227 218 191 182 166 155 156 161 168 169 161 144 121 96 71 37 13 357 313 290 312 320 315 321 323 323 331 335 338 342 344 344 342 338 331 324 316 307 299 294 291 286 282 279 276 273
184 217 211 166 157 162 175 198 194 186 173 151 167 185 197 201 204 165 190 190 157 190 223 221 224 243 235 216 217 230 233 211 214 235 234 235 251 252 242 223 204 190 192 198 170 154 155 162 173 172 160 133 91 65 46 13 358 358 349 308 306 317 309 309 320 326 327 327 328 332 337 339 338 335 330 325 321 315 309 304 300 296 292 287 282 278
196 216 200 166 174 187 195 204 197 187 176 175 187 192 196 194 165 175 214 181 124 190 204 206 234 251 241 211 210 225 233 220 214 223 229 237 246 252 253 231 198 179 180 179 158 154 163 176 181 177 169 134 64 50 40 17 357 352 350 338 315 319 316 316 331 337 333 330 328 329 333 335 334 332 329 327 326 322 319 316 312 308 303 296 291 286
122 165 186 177 184 191 211 205 172 178 184 194 206 193 190 185 168 194 211 185 174 208 190 189 239 258 251 208 203 217 226 221 209 207 213 218 230 257 279 227 172 160 159 162 163 177 187 186 185 187 205 310 18 19 21 14 357 346 347 341 327 326 332 337 341 342 338 333 331 330 330 330 329 328 328 328 328 326 325 323 320 318 312 306 301 294
60 139 180 174 149 128 346 15 112 170 191 201 219 189 182 193 191 199 200 177 188 196 190 217 238 258 276 244 221 225 204 199 208 193 180 186 229 259 231 107 126 129 131 154 178 200 215 209 206 214 264 351 357 351 350 352 341 336 341 338 328 327 338 346 342 341 339 334 330 328 326 326 326 326 325 325 325 324 324 322 321 320 318 314 309 303
187 193 167 167 172 155 290 168 161 231 207 198 207 199 195 195 187 177 164 184 204 197 192 205 222 238 271 332 286 236 161 180 209 185 160 160 193 204 125 117 126 119 122 160 194 228 258 256 253 266 343 345 331 321 321 328 326 324 328 331 330 330 338 342 339 337 335 331 326 323 323 325 324 324 323 322 321 321 320 320 320 320 320 319 315 310
193 194 176 189 193 189 196 193 189 197 198 199 203 200 200 194 184 180 186 199 211 197 193 205 217 237 277 317 261 234 188 193 212 201 186 164 150 138 120 127 136 132 158 201 223 252 264 258 261 279 302 303 300 300 306 315 321 324 326 334 342 344 340 337 336 334 331 327 324 323 325 326 325 324 323 323 322 321 320 320 320 319 320 320 318 315
170 205 205 205 207 209 211 211 172 148 167 194 199 200 203 199 191 188 190 202 203 191 203 214 204 218 249 248 233 228 216 210 204 197 196 151 123 118 117 131 149 179 214 231 256 290 303 295 290 289 287 289 295 301 311 327 335 336 337 344 355 354 344 339 338 335 331 329 328 328 330 330 329 327 326 325 324 322 322 322 321 319 318 317 317 317
141 216 214 211 221 225 219 192 145 154 186 201 200 201 201 196 193 193 203 208 195 191 219 215 191 205 231 234 222 211 216 216 198 183 177 155 145 132 118 126 252 277 287 296 293 291 287 283 285 284 285 296 317 334 346 356 359 360 360 357 355 348 343 342 341 339 337 336 336 337 336 335 333 331 329 327 325 323 323 322 321 319 317 316 315 315
158 213 213 209 223 230 223 185 170 176 195 204 205 206 200 194 195 199 211 212 194 202 223 210 196 208 225 235 228 209 208 209 181 173 173 149 150 153 149 202 255 271 277 278 275 264 245 252 263 273 295 324 357 9 11 14 17 21 17 3 355 349 345 344 344 343 343 343 344 344 341 337 335 332 331 330 328 327 326 325 324 322 319 318 316 315
179 209 210 210 224 225 219 214 197 186 191 202 208 207 198 196 200 203 215 218 209 219 230 214 209 214 221 232 232 208 203 195 135 139 150 141 167 195 200 219 231 232 240 244 247 247 238 243 270 302 326 348 15 30 36 39 32 20 8 359 355 353 350 349 348 348 350 350 348 344 341 338 336 336 336 336 335 334 334 332 331 329 327 325 322 320
204 209 202 200 227 230 219 224 221 199 195 203 206 203 195 194 200 207 215 218 215 223 227 219 216 224 232 235 227 159 167 149 117 135 161 171 196 213 222 234 233 228 237 238 234 243 252 296 359 352 357 20 44 53 54 54 38 19 9 2 355 353 353 352 352 354 355 354 350 346 343 342 340 341 341 342 341 340 339 338 337 336 334 332 330 326
191 205 197 186 213 231 214 209 220 214 212 216 208 200 194 191 198 206 210 210 209 213 220 218 215 231 240 236 215 166 152 135 137 160 175 197 212 219 233 243 241 233 234 236 238 262 312 33 68 94 90 79 79 78 69 55 32 17 14 12 3 358 355 352 353 355 355 355 353 351 351 347 345 344 343 343 343 342 341 340 339 340 339 336 335 332
182 188 192 182 204 228 212 196 195 177 218 235 212 197 196 197 202 207 210 212 209 208 211 210 216 228 228 203 224 227 185 145 166 183 182 206 215 213 225 231 229 227 226 225 226 210 135 135 133 121 99 87 87 87 71 40 23 15 12 11 5 1 2 1 1 360 1 2 359 356 354 350 348 348 345 344 342 340 340 340 339 341 340 337 336 335
189 194 198 187 202 220 190 160 162 182 212 224 203 192 196 199 200 204 211 212 209 211 216 220 229 231 204 176 226 234 190 153 184 199 194 206 211 212 222 222 221 228 224 166 132 145 149 140 125 109 103 106 109 101 75 30 24 18 5 4 6 8 11 12 13 9 8 9 6 1 357 352 350 349 346 344 342 339 339 339 338 340 340 337 336 335
190 192 198 198 205 202 152 143 180 211 212 227 220 199 198 199 199 203 212 212 207 211 219 227 234 230 203 198 226 234 188 164 181 203 208 210 204 199 204 205 211 221 202 151 144 154 156 144 139 136 131 128 123 108 81 34 29 25 17 18 18 18 18 17 17 13 9 9 8 5 1 355 351 349 346 344 341 339 338 337 337 339 339 336 334 333
191 190 190 191 194 170 152 178 206 213 117 338 312 207 191 196 196 199 217 219 209 208 209 217 228 228 204 208 231 238 185 137 163 234 229 221 212 199 191 185 187 190 177 162 159 159 157 152 147 142 131 118 103 86 62 36 28 26 31 35 27 22 21 18 15 11 7 6 4 2 1 358 354 351 348 345 342 339 337 336 336 337 338 334 332 331
175 179 186 196 198 179 174 193 214 28 37 278 273 195 184 194 190 189 211 221 208 203 207 216 226 228 214 215 234 241 95 78 303 265 240 228 220 196 174 171 169 166 159 152 146 139 138 139 131 119 110 96 76 61 48 33 27 26 32 34 26 20 17 14 12 9 4 1 358 356 356 354 351 350 347 345 343 339 337 335 333 335 336 333 330 330
166 183 190 193 197 156 168 186 192 161 213 218 215 192 168 175 174 174 202 221 200 189 200 212 221 223 218 224 232 185 95 282 268 252 209 202 180 128 121 134 141 143 143 142 139 133 130 130 122 110 101 90 73 61 51 37 28 28 32 31 23 16 14 12 9 4 359 356 353 350 349 348 347 345 343 341 339 336 335 334 332 332 333 330 326 326
181 195 145 153 151 75 162 187 192 202 224 223 206 184 146 137 123 115 184 237 217 189 193 204 213 214 211 217 215 152 129 227 250 231 182 180 164 135 131 131 132 139 142 143 144 144 144 140 131 115 95 85 74 65 62 48 32 30 33 29 19 14 12 8 3 358 353 350 347 344 343 343 341 341 339 337 335 332 331 331 330 330 330 328 324 322
179 180 166 170 181 163 166 212 236 227 254 246 200 179 158 138 119 120 204 244 204 176 187 193 198 206 208 207 194 159 181 222 239 210 174 166 156 147 142 141 143 146 145 145 142 138 138 137 131 117 94 77 62 56 57 44 29 28 27 18 10 9 7 1 355 351 347 345 343 341 340 339 338 337 336 334 333 331 329 329 329 329 328 327 325 322
175 177 175 173 172 170 181 213 270 264 252 231 204 181 152 128 120 168 220 222 161 174 192 190 193 203 202 187 173 183 208 226 190 149 156 148 137 141 145 143 141 136 133 133 131 129 129 125 115 102 86 70 55 46 42 33 26 24 17 5 0 0 357 351 348 345 343 341 340 339 338 337 336 335 334 333 332 328 325 327 328 328 327 326 325 322
159 155 160 160 156 157 175 187 261 277 241 186 160 170 156 145 166 210 210 152 163 183 193 192 196 200 184 169 178 192 191 137 117 134 146 145 141 143 144 136 130 125 119 116 113 113 113 104 88 72 60 49 39 34 27 19 17 15 5 356 354 352 346 343 343 341 338 337 337 337 337 336 336 334 333 333 333 327 322 323 325 325 325 324 323 321
165 157 174 180 163 133 135 165 195 273 234 144 120 121 206 193 197 192 140 92 156 170 164 183 196 189 164 165 179 165 132 126 137 140 144 146 135 128 131 128 126 124 113 100 90 80 73 68 60 50 37 25 21 20 15 7 4 2 354 349 350 347 340 338 338 336 333 334 335 335 336 335 334 334 333 332 332 327 322 321 322 322 322 322 320 318
183 178 184 191 178 151 163 191 200 223 206 154 138 167 211 204 181 157 140 118 98 163 160 173 181 172 164 158 151 142 138 143 147 144 143 138 112 97 100 102 104 106 96 82 69 58 53 53 50 37 22 13 11 11 9 2 355 348 344 345 347 343 337 335 333 331 330 331 332 333 334 334 333 333 333 332 331 327 323 323 323 322 322 321 319 315
226 207 176 177 196 173 167 201 230 227 217 192 147 199 198 170 93 140 143 134 165 199 174 165 163 158 149 137 133 141 155 152 143 135 135 133 118 90 67 56 65 79 78 67 59 57 54 51 40 22 13 12 10 8 5 360 352 345 343 344 342 337 334 333 331 329 328 329 331 332 332 331 331 331 331 330 329 325 322 321 321 320 319 319 317 312
272 202 139 132 199 231 228 199 172 269 246 232 337 345 149 121 73 172 145 132 158 172 149 147 154 150 144 139 136 141 152 141 127 114 108 110 97 53 38 43 50 55 54 46 43 41 33 24 17 11 7 6 6 7 7 3 0 353 344 337 334 333 332 331 329 328 328 328 329 330 330 329 329 330 329 327 326 323 319 317 316 314 312 312 310 306
286 182 140 128 161 193 232 210 179 200 216 197 152 36 65 74 44 164 140 132 143 139 112 110 128 134 137 137 133 133 135 127 119 109 98 95 89 60 44 49 54 54 50 42 31 18 7 3 3 2 359 360 5 10 9 1 354 344 335 332 332 332 332 331 329 328 327 328 328 328 329 328 327 327 326 325 324 321 317 315 313 309 306 306 306 304
221 161 161 169 168 182 243 248 231 319 358 134 114 83 93 86 46 45 73 97 105 101 86 79 96 114 115 110 119 123 118 111 114 115 109 104 104 93 68 62 63 59 51 42 26 7 359 356 354 353 356 4 7 2 355 348 340 333 331 333 335 334 331 330 330 329 327 327 327 326 326 326 324 323 322 321 320 317 313 311 309 304 301 300 300 299
152 160 179 148 134 175 296 280 63 21 356 314 306 48 61 106 92 73 69 81 92 95 89 71 59 74 91 93 105 111 104 98 107 113 112 108 100 90 80 74 67 56 45 32 15 3 359 358 358 356 354 354 351 345 342 339 335 334 337 339 338 336 333 333 333 331 328 326 325 324 323 322 321 320 319 317 316 314 309 306 304 301 298 297 296 293
136 155 165 117 128 189 234 195 153 114 267 245 205 60 52 99 104 90 77 77 80 90 98 91 73 61 61 59 71 96 101 94 94 103 105 98 93 94 89 80 73 60 42 24 13 12 14 10 2 353 343 337 334 334 335 334 334 338 344 345 340 337 337 337 334 330 328 326 323 321 320 319 318 317 317 316 314 314 311 307 304 302 299 298 297 295
169 176 171 152 161 208 213 195 170 133 128 195 84 72 70 95 99 93 82 79 78 73 87 96 90 76 65 51 50 73 89 84 75 88 95 90 84 77 63 52 46 33 22 24 28 25 15 2 351 343 335 329 327 329 331 331 335 343 347 344 339 333 332 333 331 327 325 322 320 319 318 317 316 315 313 313 312 313 313 311 309 307 303 300 300 299